User: anonymous   Login
Location: Ottawa
(45.4170°N, 75.7000°W)
Time: 19:10:19
(UTC-04:00)
Language:

Aureole 3 Rocket - Orbit

View from above orbital plane
View from above orbital plane
View from above satellite
View from above satellite

Ground track
Ground track

The orbit data is extracted from the following two-line orbital elements,

1 12849U 81094B   15180.16508391  .00001018  00000-0  93483-4 0  9995
2 12849 082.4920 358.1806 0906863 187.1637 171.5789 13.49252558644924
Epoch (UTC): 29 June 2015 03:57:43
Eccentricity: 0.0906863
inclination: 82.4920°
perigee height: 399 km
apogee height: 1751 km
right ascension of ascending node: 358.1806°
argument of perigee: 187.1637°
revolutions per day: 13.49252558
mean anomaly at epoch: 171.5789°
orbit number at epoch: 64492

The dashed part of the orbit path shows where the satellite is in the earth's shadow,  

DLR